AirNav   Textron
 
 1509 users online  

44GA S&S Flying Service Airport
Pineview, Georgia, USA

GOING TO PINEVIEW?


FAA INFORMATION EFFECTIVE 14 SEPTEMBER 2017

Location

FAA Identifier: 44GA
Lat/Long: 32-06-15.6150N / 083-28-58.6060W
32-06.260250N / 083-28.976767W
32.1043375 / -83.4829461
(estimated)
Elevation: 260 ft. / 79 m (estimated)
Variation: 02W (1986)
From city: 1 mile E of PINEVIEW, GA
Time zone: UTC -4 (UTC -5 during Standard Time)
Zip code: 31071

Airport Operations

Airport use: Private use. Permission required prior to landing
Activation date: 03/1986
Control tower: no
ARTCC: JACKSONVILLE CENTER
FSS: MACON FLIGHT SERVICE STATION
Attendance: MON-SAT 0800-1700
Wind indicator: yes
Segmented circle: no

Airport Communications

WX AWOS-3PT at CKF (16 nm SW): 119.325 (229-276-2669)
WX AWOS-3 at EZM (19 nm E): 119.425 (478-374-9979)

Nearby radio navigation aids

VOR radial/distance  VOR name  Freq  Var
VNAr173/6.6VIENNA VORTAC116.5001E
MCNr166/36.2MACON VORTAC114.2001E

 
NDB name  Hdg/Dist  Freq  Var  ID
EASTMAN268/16.836604WEZM . --.. --
CONEY078/20.340006WOHY --- .... -.--
MC RAE274/30.528003WMQW -- --.- .--
MONTEZUMA125/30.942604WIZS .. --.. ...
FITZGERALD347/31.136205WSUR ... ..- .-.
LINDBERGH102/32.024204WLKG .-.. -.- --.

Airport Services

Runway Information

Runway 18/36

Dimensions: 3000 x 100 ft. / 914 x 30 m
Surface: turf
RUNWAY 18  RUNWAY 36
Traffic pattern: leftleft
Obstructions: 35 ft. trees, 10 ft. from runway35 ft. pline, 1 ft. from runway

Airport Ownership and Management from official FAA records

Ownership: Privately-owned
Owner: J.D. SCARBOROUGH
PO BOX 28
PINEVIEW, GA 31071
Phone 912-624-2703
Manager: J.D. SCARBOROUGH
PO BOX 28
PINEVIEW, GA 31071
Phone 912-624-2703

Airport Operational Statistics

Aircraft based on the field: 2
Single engine airplanes: 2
    

Instrument Procedures

There are no published instrument procedures at 44GA.

Some nearby airports with instrument procedures:

KCKF - Crisp County-Cordele Airport (16 nm SW)
KEZM - Heart of Georgia Regional Airport (19 nm E)
48A - Cochran Airport (21 nm NE)
KFZG - Fitzgerald Municipal Airport (27 nm SE)
KPXE - Perry-Houston County Airport (28 nm NW)
 
Loc | Ops | Rwys | IFR | FBO | Links
Com | Nav | Svcs | Stats | Notes


 
Area around 44GA (S&S Flying Service Airport)
 
Road maps at: MapQuest Bing Google
 
Aerial photo
No photo
 
Sectional chart

 
Airport distance calculator
Flying to S&S Flying Service Airport? Find the distance to fly.

From to 44GA

Sunrise and sunset
Times for 26-Sep-2017
 Local
(UTC-4)
 Zulu
(UTC)
Morning civil twilight07:0111:01
Sunrise07:2611:26
Sunset19:2523:25
Evening civil twilight19:4923:49

Current date and time
Zulu (UTC)  26-Sep-2017 20:53:18
Local (UTC-4)  26-Sep-2017 16:53:18
 
METAR
KCKF 
16nm SW 
262035Z AUTO 03005KT 10SM SCT050 SCT060 33/18 A2990 RMK AO2 T03280176
KEZM 
19nm E 
262035Z AUTO 05004KT 10SM SCT050 33/09 A2990 RMK AO2 T03250088
KFZG 
27nm SE 
262035Z AUTO 36009KT 10SM SCT050 32/20 A2990 RMK AO2 T03170200
KPXE 
28nm NW 
262035Z AUTO 32009KT 10SM SCT050 SCT060 30/19 A2990 RMK AO2 T03040190
KWRB 
31nm N 
261958Z 34007KT 10SM BKN050 32/19 A2989 RMK AO2A SLP121 T03160189
TAF
KWRB 
31nm N 
261300Z 2613/2719 35009KT 9999 SCT040 QNH2987INS TX32/2619Z TN19/2613Z
KMCN 
36nm N 
261726Z 2618/2718 01007KT P6SM SCT050 FM262300 35003KT P6SM FEW060 FM270300 00000KT P6SM SKC FM271600 34006KT P6SM SCT040
NOTAMs
Click for the latest NOTAMs
NOTAMs are issued by the DoD/FAA and will open in a separate window not controlled by AirNav.

 

 
 

Would you like to see your business listed on this page?

 If your business provides an interesting product or service to pilots, flight crews, aircraft, or users of the S&S Flying Service Airport, you should consider listing it here.  To start the listing process, click on the button below
 
Add a business
 

Other Pages about S&S Flying Service Airport

Update a link
 
Copyright © AirNav, LLC. All rights reserved. Privacy Policy  Contact